Beaufort, NC

2:28 AM EDT on September 24, 2017 (GMT -0400)
Smith

Weather History for KMRH - May, 2013

Change the Weather History Date:

Friday, May 10, 2013

  Actual Average Record
Temperature  
Mean Temperature 68 °F -  
Max Temperature 75 °F 74 °F 91 °F (1964)
Min Temperature 62 °F 55 °F 42 °F (1977)
Cooling Degree Days 4    
Growing Degree Days 18 (Base 50)    
Moisture  
Dew Point 65 °F    
Average Humidity 84    
Maximum Humidity 100    
Minimum Humidity 69    
Precipitation  
Precipitation 0.00 in - - ()
Sea Level Pressure  
Sea Level Pressure 30.07 in    
Wind  
Wind Speed 5 mph (SSW)    
Max Wind Speed 14 mph    
Max Gust Speed -    
Visibility 9 miles    
Events      
Averages and records for this station are not official NWS values.
T = Trace of Precipitation, MM = Missing Value Source: NWS Daily Summary

Daily Weather History Graph

Daily Weather History Graph

Search for Another Location

Airport or City:

Trip Planner

Search our weather history database for the weather conditions in past years. The results will help you decide how hot, cold, wet, or windy it might be!

Date:

Astronomy

May. 10, 2013 Rise Set
Actual Time 6:07 AM EDT 7:59 PM EDT
Civil Twilight 5:39 AM EDT 8:26 PM EDT
Nautical Twilight 5:06 AM EDT 9:00 PM EDT
Astronomical Twilight 4:30 AM EDT 9:35 PM EDT
Moon 6:30 AM EDT (5/10) 8:45 PM EDT (5/10)
Length of Visible Light 14h 46m
Length of Day
13h 51m
New Moon, 0% of the Moon is Illuminated
May 10
New Moon
May 18
First Quarter
May 25
Full
May 31
Last Quarter
Jun 8
New

Hourly Weather History & Observations

Time (EDT) Temp. Dew Point Humidity Pressure Visibility Wind Dir Wind Speed Gust Speed Precip Events Conditions
12:58 AM 66.0 °F 63.0 °F 90% 30.09 in 9.0 mi SW 4.6 mph - N/A   Clear
1:58 AM 66.0 °F 63.0 °F 90% 30.07 in 9.0 mi SW 4.6 mph - N/A   Clear
2:58 AM 64.0 °F 62.1 °F 93% 30.08 in 9.0 mi Calm Calm - N/A   Clear
3:58 AM 64.9 °F 62.1 °F 90% 30.08 in 9.0 mi Calm Calm - N/A   Clear
4:58 AM 64.9 °F 63.0 °F 93% 30.08 in 8.0 mi Calm Calm - N/A   Clear
5:24 AM 62.6 °F 60.8 °F 94% 30.07 in 1.8 mi Calm Calm - N/A   Clear
5:58 AM 63.0 °F 61.0 °F 93% 30.08 in 3.0 mi Calm Calm - N/A   Clear
6:58 AM 64.0 °F 64.0 °F 100% 30.09 in 4.0 mi Calm Calm - N/A   Clear
7:58 AM 69.1 °F 64.9 °F 87% 30.10 in 7.0 mi SW 3.5 mph - N/A   Clear
8:58 AM 71.1 °F 64.9 °F 81% 30.10 in 9.0 mi West 4.6 mph - N/A   Clear
9:58 AM 73.9 °F 66.0 °F 76% 30.11 in 9.0 mi South 3.5 mph - N/A   Clear
10:58 AM 75.0 °F 66.0 °F 73% 30.10 in 10.0 mi South 5.8 mph - N/A   Clear
11:58 AM 73.9 °F 64.9 °F 73% 30.09 in 10.0 mi SSW 11.5 mph - N/A   Clear
12:58 PM 75.0 °F 64.9 °F 71% 30.08 in 10.0 mi SW 9.2 mph - N/A   Clear
1:58 PM 73.9 °F 64.9 °F 73% 30.09 in 10.0 mi SSW 12.7 mph - N/A   Clear
2:58 PM 75.0 °F 64.0 °F 69% 30.08 in 10.0 mi SW 13.8 mph - N/A   Clear
3:58 PM 75.0 °F 64.9 °F 71% 30.07 in 10.0 mi SSW 12.7 mph - N/A   Clear
4:58 PM 75.0 °F 64.9 °F 71% 30.06 in 10.0 mi SSW 11.5 mph - N/A   Clear
5:58 PM 73.9 °F 66.0 °F 76% 30.05 in 10.0 mi SSW 12.7 mph - N/A   Clear
6:58 PM 72.0 °F 66.0 °F 81% 30.04 in 10.0 mi South 9.2 mph - N/A   Clear
7:58 PM 70.0 °F 64.9 °F 84% 30.04 in 10.0 mi SSW 10.4 mph - N/A   Clear
8:58 PM 70.0 °F 66.0 °F 87% 30.05 in 10.0 mi South 9.2 mph - N/A   Clear
9:58 PM 70.0 °F 66.9 °F 90% 30.06 in 10.0 mi SSW 8.1 mph - N/A   Clear
10:58 PM 70.0 °F 68.0 °F 93% 30.05 in 8.0 mi South 9.2 mph - N/A   Clear
11:58 PM 70.0 °F 68.0 °F 93% 30.05 in 8.0 mi SSW 8.1 mph - N/A   Clear